Starlink 35087

operational
NORAD ID: 65541 Int'l Des: 2025-200 Owner: SPXS Country: US Constellation: starlink
LEOCIRCULARRETROGRADE

About Starlink 35087

Description loading...

Live Position

Loading 3D Globe...

Upcoming Passes

Altitude History

Altitude vs Time

uPlot chart will show altitude changes over time

Two-Line Element Set

1 65541U 25200X 25303.18688306 .00057158 00000-0 14559-2 0 9995
2 65541 97.6057 10.8410 0001331 93.7700 266.3697 15.39363015 9470
Epoch: Oct 30, 2025 • Age: 17 hours

Current Status

Altitude 467.7 km
Velocity 7.63 km/s
Sub-Earth Point -49.47°S, 19.62°E
Launch Date Sep 6, 2025
Age 0.1 years
Type internet

Technical Details

Classification Payload
Mass 575.00 kg
Dry Mass 530.00 kg
Total Mass 575.00 kg
Length 0.30 m
Diameter 4.10 m
Span 29.00 m
Shape Box + pan
Manufacturer SPXS
Bus Type Starlink V2MO
Phase Status In Orbit
Owner/State SPXS/US

Large Constellations

Loading constellations...